Погода в Польце

Россия / Республика Мордовия     54°12′01″N   43°46′42″E
темп.,
°C
ветер,
м/с
пор.,
м/с
влажн.,
%
обл.,
%
осадки,
мм/ч
давл.,
гПа
погр.,
м
23 апреля, пт
пт2300:00+7ю228155 0.0 102232
03:00+7ююв347831 0.0 102265
06:00+7ююв398179 0.0 1022157
09:00+12ю476598 0.0 1022359
12:00+14ю565364 0.0 1021910
15:00+15ююв4546100 0.0 10192101
18:00+13юв3664100 0.0 1018170
21:00+9юв3572100 0.0 101781
24 апреля, сб
сб2400:00+8ююв358663 0.0 101697
03:00+6ююв35936 0.0 1014105
06:00+7ююв389195 0.0 1013232
09:00+12ю696738 0.0 10111097
12:00+14ю6759100 0.6 10081400
15:00+12юз6771100 3.4 10061156
18:00+4зсз61293100 4.9 1008676
21:00+5юз378886 5.3 1008338
25 апреля, вс
вс2500:00+4зюз512843 0.1 1008485
03:00+2юз512814 0.1 1008430
06:00+1юз51093100 0.0 1009614
09:00+4з598690 0.1 1010777
12:00+8з81150100 0.4 10122370
15:00+8зюз8125199 0.8 10132373
18:00+7зюз713545 0.4 10131619
21:00+4юз5117193 0.4 1015398
26 апреля, пн
пн2600:00+3юз5127795 0.0 1016357
03:00+2ююз4108395 0.0 1015335
06:00+3юз6117992 0.0 1015839
09:00+5зюз467524 0.1 1016881
12:00+8зюз5851100 0.1 10152015
15:00+9юз4655100 0.1 10141420
18:00+6юз3489100 1.1 1013803
21:00+4зсз1294100 3.5 1013571
27 апреля, вт
вт2700:00+3вюв0192100 2.0 1012144
03:00+2ю369551 2.1 1012154
06:00+2юз49873 0.0 1012300
09:00+6зюз68685 0.1 1012947
12:00+8зюз7952100 0.8 10122119
15:00+9з6104294 1.1 10122490
18:00+8з59535 0.1 1013618
21:00+4зюз33709 0.1 101444